SWA5674 KLAX-KSFO

Flight info

Callsign SWA5674
Flight time N/A
Altitude 36000
Route SUMMR2 STOKD SERFR SERFR4
Aircraft B38M/M-VGDW/C

Departure

Time 2026-04-20 20:48
Airport Los Angeles International Airport (KLAX)

Arrival

Time N/A
Airport San Francisco International Airport (KSFO)
Time Latitude Longitude Altitude Speed Heading
2026-04-20 20:27 33.94648 -118.40183 123 ft 0 kts 82°
2026-04-20 20:39 33.94648 -118.40185 126 ft 2 kts 82°
2026-04-20 20:39 33.94645 -118.40207 121 ft 3 kts 82°
2026-04-20 20:39 33.94641 -118.40228 125 ft 3 kts 39°
2026-04-20 20:40 33.94628 -118.40235 121 ft 0 kts 357°
2026-04-20 20:43 33.94632 -118.40236 124 ft 1 kts 357°
2026-04-20 20:44 33.94662 -118.40243 124 ft 8 kts 347°
2026-04-20 20:44 33.94731 -118.40257 122 ft 10 kts 352°
2026-04-20 20:44 33.94784 -118.40265 124 ft 4 kts 352°
2026-04-20 20:44 33.94828 -118.40282 125 ft 10 kts 341°
2026-04-20 20:45 33.94899 -118.40253 123 ft 11 kts 53°
2026-04-20 20:45 33.94912 -118.40165 126 ft 13 kts 86°
2026-04-20 20:45 33.94921 -118.40053 124 ft 10 kts 84°
2026-04-20 20:45 33.94933 -118.39963 126 ft 8 kts 70°
2026-04-20 20:46 33.94944 -118.39940 125 ft 0 kts 54°
2026-04-20 20:46 33.94946 -118.39938 124 ft 2 kts 52°
2026-04-20 20:46 33.94949 -118.39933 124 ft 2 kts 47°
2026-04-20 20:46 33.94980 -118.39918 123 ft 8 kts 10°
2026-04-20 20:47 33.95029 -118.39934 125 ft 6 kts 315°
2026-04-20 20:47 33.95040 -118.39969 124 ft 7 kts 274°
2026-04-20 20:47 33.95023 -118.40145 126 ft 47 kts 263°
2026-04-20 20:47 33.94949 -118.40855 123 ft 121 kts 263°
2026-04-20 20:48 33.94835 -118.42034 228 ft 159 kts 262°
2026-04-20 20:48 33.94707 -118.43387 677 ft 164 kts 264°
2026-04-20 20:48 33.94547 -118.44753 1170 ft 169 kts 259°
2026-04-20 20:48 33.94388 -118.46252 1673 ft 187 kts 263°
2026-04-20 20:49 33.94347 -118.47833 2451 ft 196 kts 266°
2026-04-20 20:49 33.94285 -118.49557 2999 ft 216 kts 266°
2026-04-20 20:49 33.94145 -118.51436 3580 ft 235 kts 261°
2026-04-20 20:49 33.93984 -118.53474 4248 ft 253 kts 264°
2026-04-20 20:50 33.93857 -118.55618 4961 ft 266 kts 263°
2026-04-20 20:50 33.93688 -118.57860 5852 ft 271 kts 263°
2026-04-20 20:50 33.93500 -118.60140 6757 ft 276 kts 262°
2026-04-20 20:50 33.93317 -118.62451 7665 ft 279 kts 261°
2026-04-20 20:51 33.93134 -118.64790 8582 ft 282 kts 261°
2026-04-20 20:51 33.92951 -118.67153 9509 ft 285 kts 262°
2026-04-20 20:51 33.92767 -118.69549 10364 ft 290 kts 261°
2026-04-20 20:51 33.92574 -118.72017 10965 ft 303 kts 261°
2026-04-20 20:52 33.92371 -118.74602 11484 ft 318 kts 261°
2026-04-20 20:52 33.92158 -118.77317 11952 ft 334 kts 261°
2026-04-20 20:52 33.91931 -118.80204 12100 ft 359 kts 261°
2026-04-20 20:52 33.91714 -118.83203 12109 ft 367 kts 264°